Flag for U.S.A. Weather past 2 weeks in Cedar Rapids, Iowa, U.S.A.

Now
71 °F

Overcast.


Feels Like: 69 °F
Forecast: 65 / 80 °F
Wind: 13 mph from West

Location: Cedar Rapids Municipal Airport

Current Time: Aug 30, 2014 at 11:13:09 AM

Latest Report: Aug 30, 2014 at 10:52 AM


Visibility: 10 mi

Pressure: 29.85 "Hg

Humidity: 87%

Dew point: 67 °F

Location of Cedar RapidsLocation

Historic Weather in Cedar Rapids — Graph

°F

Cedar Rapids temperature yesterday

Maximum temperature yesterday: 86 °F (at 1:52 PM)
Minimum temperature yesterday: 67 °F (at 6:52 AM)
Average temperature yesterday: 73 °F

Past Weeks' High & Low Weather Summary

 TemperatureHumidityPressure
High91 °F (Aug 24, 3:52 PM)100% (Aug 15, 11:52 PM)30.18 "Hg (Aug 15, 11:52 PM)
Low61 °F (Aug 17, 4:52 AM)51% (Aug 19, 2:52 PM)29.68 "Hg (Aug 19, 4:52 AM)
Average73 °F88%29.91 "Hg
* Reported Aug 15 9:52 AM — Aug 30 9:54 AM, Cedar Rapids, Weather by CustomWeather, © 2014

Note: Actual official high and low records may vary slightly from our data, if they occured in-between our weather recording intervals... More about our weather records

Advertising

Cedar Rapids weather history for previous 24 hours

 ConditionsComfort  
Time TempWeatherWind HumidityBarometerVisibility
9:54 AM
Aug 30
71 °FOvercast.13 mph90%29.85 "Hg10 mi
8:52 AM69 °FLow clouds.13 mph96%29.83 "Hg10 mi
7:52 AM68 °FLow clouds.13 mph96%29.81 "Hg10 mi
6:59 AM67 °FLow clouds.9 mph97%29.81 "Hg10 mi
5:52 AM66 °FLight rain. Overcast.10 mph100%29.77 "Hg8 mi
4:52 AM66 °FMostly cloudy.10 mph100%29.78 "Hg10 mi
3:52 AM67 °FPassing clouds.8 mph97%29.77 "Hg10 mi
2:52 AM68 °FPartly cloudy.8 mph100%29.76 "Hg10 mi
2:04 AM70 °FRain. Fog.9 mph100%29.78 "Hg3 mi
1:56 AM70 °FLight rain. Fog.12 mph100%29.78 "Hg2 mi
12:52 AM70 °FFog.9 mph100%29.77 "Hg5 mi
11:52 PM
Aug 29
70 °FFog.7 mph100%29.78 "Hg5 mi
10:52 PM68 °FFog.7 mph100%29.78 "Hg5 mi
9:52 PM69 °FMostly cloudy.7 mph100%29.78 "Hg7 mi
8:52 PM69 °FLight rain. Fog.5 mph100%29.78 "Hg4 mi
7:52 PM69 °FPartly sunny.6 mph100%29.76 "Hg9 mi
6:52 PM69 °FBroken clouds.5 mph100%29.77 "Hg10 mi
5:56 PM74 °FThunderstorms. Broken clouds.10 mph74%29.81 "Hg10 mi
4:52 PM81 °FSunny.8 mph72%29.77 "Hg10 mi
3:52 PM85 °FScattered clouds.14 mph65%29.77 "Hg10 mi
1:52 PM86 °FPassing clouds.12 mph63%29.81 "Hg10 mi
12:52 PM85 °FSunny.10 mph70%29.83 "Hg9 mi
11:52 AM82 °FSunny.8 mph72%29.85 "Hg9 mi
Weather by CustomWeather, © 2014

See weather overviewHow to use our weather pages